Blytheville Muni Airport, AR

8:07 PM CDT on March 30, 2017 (GMT -0500)
Blytheville Municipal

Weather History for KHKA - February, 2012

Change the Weather History Date:

Friday, February 17, 2012

  Actual Average Record
Temperature  
Mean Temperature 45 °F -  
Max Temperature 53 °F 48 °F 77 °F (1965)
Min Temperature 37 °F 32 °F -3 °F (1958)
Degree Days  
Heating Degree Days 20    
Moisture  
Dew Point 38 °F    
Average Humidity 76    
Maximum Humidity 90    
Minimum Humidity 50    
Precipitation  
Precipitation 0.00 in - - ()
Sea Level Pressure  
Sea Level Pressure 30.19 in    
Wind  
Wind Speed 4 mph (NE)    
Max Wind Speed 9 mph    
Max Gust Speed -    
Visibility 8 miles    
Events      
Averages and records for this station are not official NWS values.
T = Trace of Precipitation, MM = Missing Value Source: NWS Daily Summary

Daily Weather History Graph

Daily Weather History Graph

Search for Another Location

Airport or City:

Trip Planner

Search our weather history database for the weather conditions in past years. The results will help you decide how hot, cold, wet, or windy it might be!

Date:

Astronomy

Feb. 17, 2012 Rise Set
Actual Time 6:44 AM CST 5:42 PM CST
Civil Twilight 6:18 AM CST 6:08 PM CST
Nautical Twilight 5:48 AM CST 6:38 PM CST
Astronomical Twilight 5:19 AM CST 7:08 PM CST
Moon 3:30 AM CST (2/17) 1:41 PM CST (2/17)
Length of Visible Light 11h 49m
Length of Day
10h 57m
Waning Crescent, 19% of the Moon is Illuminated
Feb 17
Waning Crescent
Feb 21
New
Feb 29
First Quarter
Mar 8
Full
Mar 14
Last Quarter

Hourly Weather History & Observations

Time (CST) Temp. Windchill Dew Point Humidity Pressure Visibility Wind Dir Wind Speed Gust Speed Precip Events Conditions
12:53 AM 39.9 °F - 37.0 °F 89% 30.23 in 7.0 mi Calm Calm - N/A   Clear
1:53 AM 39.0 °F - 36.0 °F 89% 30.24 in 6.0 mi Calm Calm - N/A   Clear
2:53 AM 37.0 °F 31.6 °F 34.0 °F 89% 30.24 in 5.0 mi North 6.9 mph - N/A   Clear
3:53 AM 39.9 °F 35.1 °F 37.0 °F 89% 30.21 in 7.0 mi ENE 6.9 mph - N/A   Clear
4:53 AM 39.0 °F 34.0 °F 36.0 °F 89% 30.21 in 6.0 mi ENE 6.9 mph - N/A   Clear
6:53 AM 37.9 °F 33.5 °F 34.0 °F 86% 30.22 in 5.0 mi East 5.8 mph - N/A   Clear
7:53 AM 39.9 °F 36.7 °F 36.0 °F 86% 30.25 in 5.0 mi NE 4.6 mph - N/A   Clear
8:53 AM 44.1 °F 39.5 °F 37.9 °F 79% 30.26 in 6.0 mi East 8.1 mph - N/A   Haze
9:53 AM 46.9 °F - 37.9 °F 71% 30.25 in 9.0 mi ESE 9.2 mph - N/A   Clear
10:53 AM 50.0 °F - 39.0 °F 66% 30.23 in 10.0 mi East 8.1 mph - N/A   Clear
11:53 AM 51.1 °F - 36.0 °F 56% 30.22 in 10.0 mi ESE 8.1 mph - N/A   Clear
12:53 PM 52.0 °F - 34.0 °F 50% 30.20 in 10.0 mi Variable 3.5 mph - N/A   Clear
1:53 PM 53.1 °F - 36.0 °F 52% 30.19 in 10.0 mi Calm Calm - N/A   Clear
3:53 PM 52.0 °F - 37.9 °F 59% 30.14 in 10.0 mi NNE 3.5 mph - N/A   Clear
4:53 PM 51.1 °F - 39.9 °F 66% 30.14 in 10.0 mi North 4.6 mph - N/A   Mostly Cloudy
5:53 PM 48.9 °F - 41.0 °F 74% 30.13 in 10.0 mi NE 4.6 mph - N/A   Overcast
6:53 PM 48.0 °F - 43.0 °F 83% 30.13 in 9.0 mi NNW 4.6 mph - N/A   Overcast
7:53 PM 48.0 °F - 42.1 °F 80% 30.12 in 9.0 mi NNE 4.6 mph - N/A   Overcast
9:53 PM 46.9 °F - 39.9 °F 77% 30.12 in 9.0 mi Calm Calm - N/A   Overcast
10:53 PM 46.0 °F - 41.0 °F 83% 30.13 in 8.0 mi Calm Calm - N/A   Overcast
11:53 PM 45.0 °F 43.5 °F 42.1 °F 90% 30.13 in 7.0 mi NNW 3.5 mph - 0.00 in   Overcast